« Back
NWS Peachtree City, Ga » Text Product » GA Regional Weather Roundup


Printer-friendly Version
Current Version              Previous Versions:   1  2  3  4  5  6  7  8  9  

Regional Weather Roundup

565
ASUS42 KFFC 081303
RWRGA
WEATHER ROUNDUP FOR GEORGIA
NATIONAL WEATHER SERVICE PEACHTREE CITY GA
800 AM EST MON FEB 08 2016

NOTE: "FAIR" INDICATES FEW OR NO CLOUDS BELOW 12,000 FEET WITH NO
SIGNIFICANT WEATHER AND/OR OBSTRUCTIONS TO VISIBILITY.

* = USE WITH CAUTION. THE STATIONS MARKED WITH AN ASTERISK MAY NOT
REPORT WEATHER SUCH AS PRECIPITATION, FOG, OR THUNDER AND ARE NOT
QUALITY CONTROLLED BY NWS.

THE REMARK "TC" DENOTES TEMPERATURE READING IN DEGREES CELSIUS.

GAZ001>058-081400-
NORTH GEORGIA

CITY           SKY/WX    TMP DP  RH WIND       PRES   REMARKS
ATLANTA        PTCLDY    37  24  59 SW7       29.85S WCI  32
ATHENS         PTCLDY    36  24  62 SW3       29.84S
CHAMBLEE       PTCLDY    36  25  64 SW6       29.83F WCI  31
PEACHTREE CITY CLEAR     30  25  81 CALM      29.88S
ROME           CLOUDY    33  29  85 CALM      29.85R
WEST ATLANTA   PTCLDY    36  23  59 SW8       29.85F WCI  30
GAINESVILLE    PTCLDY    37  25  61 SW5       29.82F WCI  33
CARTERSVILLE   MOCLDY    31  27  85 CALM      29.86S


CITY           SKY/WX    TMP DP  RH WIND       PRES   REMARKS
LAWRENCEVILLE* MOCLDY    37  27  65 W6        29.83S WCI  33
MARIETTA       MOCLDY    34  25  68 CALM      29.83F
BLAIRSVILLE*     N/A     28  18  64 CALM      29.79F
$$

GAZ059>098-102>109-081400-
CENTRAL GEORGIA

CITY           SKY/WX    TMP DP  RH WIND       PRES   REMARKS
AUGUSTA-BUSH   CLEAR     34  27  75 CALM      29.88F
AUGUSTA-DANIEL CLEAR     40  24  53 SW3       29.87F
COLUMBUS       CLEAR     34  26  72 CALM      29.93R
MACON          CLEAR     38  26  62 SW5       29.90F WCI  34
ROBINS AFB     CLEAR     38  25  60 VRB5      29.90F HAZE    WCI  34


CITY           SKY/WX    TMP DP  RH WIND       PRES   REMARKS
LAGRANGE*      CLEAR     33  32  99 CALM      29.89F
SYLVANIA*      CLEAR     36  32  86 CALM      29.92F
MILLEDGEVILLE* CLEAR     34  28  80 CALM      29.88F
$$

GAZ099>101-110>166-081400-
SOUTH GEORGIA

CITY           SKY/WX    TMP DP  RH WIND       PRES   REMARKS
SAVANNAH       CLEAR     38  29  70 SW5       29.95F WCI  34
VALDOSTA       CLEAR     37  33  85 CALM      30.00F
ALMA           CLEAR     36  32  85 SW5       29.97F WCI  32
ST SIMONS      CLEAR     42  33  70 SW8       29.98F
FT STEWART     CLEAR     35  31  85 CALM      29.93F
ALBANY         CLEAR     33  29  85 SW7       29.99F WCI  27
HUNTER AFB     CLEAR     38  32  79 SW6       29.92F WCI  33
MOODY AFB      CLEAR     40  29  65 SW7       29.98F
BRUNSWICK      CLEAR     37  34  87 SW5       29.99F WCI  34


CITY           SKY/WX    TMP DP  RH WIND       PRES   REMARKS
BAINBRIDGE*    CLEAR     37  34  87 SW7       30.01S WCI  32
MOULTRIE*      CLEAR     36  32  87 CALM      30.00F
VIDALIA*       CLEAR     34  32  93 SW6       29.93F WCI  29
WAYCROSS*      CLEAR     39  35  85 SW6       29.99R
DOUGLAS*       CLEAR     36  32  87 SW6       29.98F WCI  31
$$




USA.gov is the U.S. government's official web portal to all federal, state and local government web resources and services.